Starlink 32955

operational
NORAD ID: 63117 Int'l Des: 2025-039 Owner: SPXS Country: US Constellation: starlink
LEOCIRCULAR

Über Starlink 32955

Beschreibung wird geladen...

Live-Position

3D-Globus wird geladen...

Nächste Überflüge

Höhenverlauf

Altitude vs Time

uPlot chart will show altitude changes over time

Zweizeiliger Elementsatz

1 63117U 25039P 26034.45118063 .00024176 00000-0 87761-3 0 9992
2 63117 43.0013 205.8703 0000747 228.5634 131.5154 15.27862084 52835
Epoch: 3. Feb. 2026 • Age: 11 hours

Aktueller Status

Höhe 483.3 km
Geschwindigkeit 7.63 km/s
Subsatellitenpunkt 30.59°N, 137.92°E
Startdatum 27. Feb. 2025
Alter 0.9 years
Typ internet

Technische Details

Klassifizierung Payload
Masse 730.00 kg
Trockenmasse 700.00 kg
Gesamtmasse 730.00 kg
Länge 0.30 m
Durchmesser 4.10 m
Spannweite 29.00 m
Form Box + pan
Hersteller SPXS
Bus-Typ Starlink V2M
Phasenstatus In Orbit
Besitzer/Staat SPXS/US

Große Konstellationen

Loading constellations...